User: anonymous   Login
Location: UBC Liquid-Mirror Observatory
(49.2876°N, 122.5728°W)
Time: 04:46:39
(UTC-07:00)
Language:

KITSAT 1 - Orbit

View from above orbital plane
View from above orbital plane
View from above satellite
View from above satellite

Ground track
Ground track

The orbit data is extracted from the following two-line orbital elements,

1 22077U 92052B   16148.18140715 -.00000050  00000-0  45318-4 0  9994
2 22077  66.0863  55.1042 0012639 233.5808 235.6509 12.86513116117739
Epoch (UTC): 27 May 2016 04:21:13
Eccentricity: 0.0012639
inclination: 66.0863°
perigee height: 1305 km
apogee height: 1325 km
right ascension of ascending node: 55.1042°
argument of perigee: 233.5808°
revolutions per day: 12.86513116
mean anomaly at epoch: 235.6509°
orbit number at epoch: 11773

The dashed part of the orbit path shows where the satellite is in the earth's shadow,  

DLR